Regional Weather Roundup
Issued by NWS

Home | Current Version | Previous Version | Graphics & Text | Print | Product List | Glossary On
Versions: 1 2 3 4 5 6 7 8 9 10 11 12 13 14 15 16 17 18 19 20 21 22 23 24 25 26 27 28 29 30 31 32 33 34 35 36 37 38 39 40 41 42 43 44 45 46 47 48 49 50
000
ASUS43 KDMX 230501
RWRIA

WEATHER ROUNDUP FOR IOWA
NATIONAL WEATHER SERVICE DES MOINES IA
1200 AM CDT FRI JUN 23 2017

NOTE: "FAIR" INDICATES FEW OR NO CLOUDS BELOW 12,000 FEET WITH NO
SIGNIFICANT WEATHER AND/OR OBSTRUCTIONS TO VISIBILITY.

* - THESE STATIONS ARE NOT NWS STATIONS...THUS NOT UNDER NWS
QUALITY CONTROL.  THEY ALSO DO NOT REPORT WEATHER SUCH
AS PRECIPITATION OR FOG.

IAZ001>003-012>014-020>022-031>034-043>046-230600-
   NORTHWEST IOWA

CITY           SKY/WX    TMP DP  RH WIND       PRES   REMARKS
CARROLL *      CLOUDY    70  61  73 N13       29.77S
CHEROKEE *     CLOUDY    65  57  75 N6        29.83R
DENISON *      CLOUDY   N/A N/A N/A N12G17    29.81S
LE MARS *      CLEAR     63  55  77 N5        29.85R
ORANGE CITY *  CLEAR     63  54  72 N7        29.84S
SHELDON *      CLEAR     59  54  82 N6        29.83R
SIOUX CITY       N/A    N/A N/A N/A MISG      29.84R
SPENCER        CLOUDY    59  55  87 NW6       29.82R
STORM LAKE *   CLOUDY    64  57  77 N13       29.83R
$$

IAZ055>058-069>071-079>083-090>094-230600-
   SOUTHWEST IOWA

CITY           SKY/WX    TMP DP  RH WIND       PRES   REMARKS
ATLANTIC *     HVY RAIN  70  66  88 N15G21    29.76R
AUDUBON *      MOCLDY    70  63  78 N13       29.78S
CLARINDA *     CLOUDY    77  73  88 CALM      29.73R
COUNCIL BLFS * CLOUDY    72  68  88 N18       29.77R
CRESTON *      CLOUDY    77  72  83 NW10      29.74R
HARLAN  *      CLOUDY    70  63  78 N10G20    29.81R
LAMONI         PTCLDY    76  72  87 S9        29.70S
RED OAK *      LGT RAIN  73  72  94 NE12      29.74R
SHENANDOAH *   CLOUDY    79  72  78 NW7       29.72R HX  82
$$

IAZ047>049-059>061-072>074-084-230600-
   CENTRAL IOWA

CITY           SKY/WX    TMP DP  RH WIND       PRES   REMARKS
AMES           CLOUDY    70  69  97 N21       29.73R
ANKENY *       CLOUDY    70  68  94 N7        29.73R
BOONE *        CLOUDY    68  66  94 N13G21    29.74R
CHARITON *     PTCLDY    75  72  88 CALM      29.71R
DES MOINES     CLOUDY    71  69  93 NW7       29.70R
GRINNELL*      CLOUDY    75  70  83 S7        29.68F
KNOXVILLE *    CLOUDY    72  66  83 NW29G37   29.71R
MARSHALLTOWN   CLOUDY    71  68  90 N21G26    29.69R
NEWTON *       CLOUDY    73  72  94 W14G20    29.71R
PELLA *        PTCLDY    76  70  82 SW5       29.70R
PERRY *        CLOUDY    71  68  92 N13G18    29.74R
$$

IAZ004>006-015-016-023>025-035-036-230600-
   NORTH CENTRAL IOWA

CITY           SKY/WX    TMP DP  RH WIND       PRES   REMARKS
ALGONA *       CLOUDY    64  64 100 N9        29.80R
CLARION *        N/A     68  68 100 N8G14     29.77R
ESTHERVILLE    CLOUDY    58  57  97 NW6       29.81R
FORT DODGE *   CLOUDY    68  57  68 N8        29.78S
MASON CITY     CLOUDY    67  64  90 N7        29.77
FOREST CITY *  CLOUDY    66  59  77 N10       29.78R
WEBSTER CITY * CLOUDY    68  64  88 N10       29.75R
IOWA FALLS *   HVY RAIN  69  66  92 N18       29.74R
$$

IAZ007>011-017>019-026>030-037>042-050>054-066-230600-
   NORTHEAST IOWA

CITY           SKY/WX    TMP DP  RH WIND       PRES   REMARKS
CEDAR RAPIDS   CLOUDY    76  73  91 S10       29.64F
CHARLES CITY * CLOUDY    68  68 100 N10       29.74S
CLINTON *      CLEAR     74  72  93 S9        29.69F
DECORAH *      LGT RAIN  68  66  94 NE6       29.71F
DUBUQUE        CLOUDY    74  71  91 S12       29.66F
MONTICELLO *   CLOUDY    75  72  88 S9G18     29.63F
OELWEIN *      CLOUDY    70  70 100 N15       29.68S
WATERLOO       TSTM      70  68  93 N23       29.67S
$$

IAZ064-065-067-068-078-230600-
   EAST CENTRAL IOWA

CITY           SKY/WX    TMP DP  RH WIND       PRES   REMARKS
DAVENPORT      PTCLDY    75  71  87 S9        29.70F
IOWA CITY      PTCLDY    75  71  87 SE6       29.68F
MT. PLEASANT * CLOUDY    77  71  83 S5        29.71R
MUSCATINE *    MOCLDY    75  72  88 CALM      29.70R
QUAD CITIES    CLOUDY    76  71  85 CALM      29.69F
$$

IAZ062-063-075>077-085>089-095>099-230600-
   SOUTHEAST IOWA

CITY           SKY/WX    TMP DP  RH WIND       PRES   REMARKS
BURLINGTON     CLOUDY    78  74  87 S6        29.71S HX  81
FAIRFIELD *    MOCLDY    77  70  78 S7        29.69S
FORT MADISON * MOCLDY    77  73  88 S7        29.72S
KEOKUK *       CLOUDY    79  73  83 S6        29.70S HX  82
OSKALOOSA *      N/A     73  70  89 S5        29.69F
OTTUMWA        CLEAR     76  72  87 S7        29.68F
WASHINGTON *   PTCLDY    75  73  94 S6        29.70F
$$

ABBREVIATIONS USED IN REMARKS
   TC - TEMPERATURES IN CELSIUS
  WCI - WIND CHILL INDEX
   HX - HEAT INDEX
  VSB - VISIBILITY
$$




USA.gov is the U.S. government's official web portal to all federal, state and local government web resources and services.